Starlink 11353

operational
NORAD ID: 61941 Int'l Des: 2024-209 Owner: SPXS Country: US Constellation: starlink
LEOCIRCULAR

About Starlink 11353

Description loading...

Live Position

Loading 3D Globe...

Upcoming Passes

Altitude History

Altitude vs Time

uPlot chart will show altitude changes over time

Two-Line Element Set

1 61941U 24209C 26094.73768736 .00110166 00000-0 90115-3 0 9990
2 61941 53.1573 242.5155 0001210 107.3048 252.8103 15.69736709 80774
Epoch: Apr 4, 2026 • Age: 15 hours

Current Status

Altitude 376.7 km
Velocity 7.68 km/s
Sub-Earth Point -48.61°S, 142.29°W
Launch Date Nov 14, 2024
Age 1.3 years
Type internet

Technical Details

Classification Payload
Mass 960.00 kg
Dry Mass 910.00 kg
Total Mass 960.00 kg
Length 0.30 m
Diameter 4.10 m
Span 29.00 m
Shape Box + pan
Manufacturer SPXS
Bus Type Starlink V2MD
Phase Status In Orbit
Owner/State SPXS/US

Large Constellations

Loading constellations...